{"data":{"norad_id":55990,"epoch":"2026-09-20T19:35:44.762784Z","epoch_age_seconds":78832,"freshness":"FRESH","line1":"1 55990U 23042E   26263.81649031  .00000138  00000+0  14545-4 0  9994","line2":"2 55990  43.0041  37.4613 0001223 273.4851  86.5861 15.27584502192717","mean_motion":15.27584502,"eccentricity":0.0001223,"inclination_deg":43.0041,"raan_deg":37.4613,"arg_perigee_deg":273.4851,"mean_anomaly_deg":86.5861,"bstar":1.4545e-5,"rev_number":19271,"period_min":94.266470896678,"perigee_km":482.1964940543,"apogee_km":483.87473687605,"semimajor_km":6861.1726154652,"source":"CELESTRAK","updated_at":"2026-09-21T09:00:33.350212Z"}}